Time,TemperatureF,DewpointF,PressureIn,WindDirection,WindDirectionDegrees,WindSpeedMPH,WindSpeedGustMPH,Humidity,HourlyPrecipIn,Conditions,Clouds,dailyrainin,SoftwareType,DateUTC
2013-03-21 00:03:00,53.0,35.0,30.01,North,0,0.0,0.0,50,0.00,,,0.00,,2013-03-21 05:03:00,
2013-03-21 00:12:00,53.0,35.0,30.01,North,0,0.0,0.0,50,0.00,,,0.00,,2013-03-21 05:12:00,
2013-03-21 00:22:00,53.0,34.0,30.01,North,0,0.0,0.0,49,0.00,,,0.00,,2013-03-21 05:22:00,
2013-03-21 00:32:00,53.0,34.0,30.01,North,7,0.0,0.0,48,0.00,,,0.00,,2013-03-21 05:32:00,
2013-03-21 00:43:00,53.0,35.0,30.00,North,0,0.0,0.0,51,0.00,,,0.00,,2013-03-21 05:43:00,
2013-03-21 00:52:00,53.0,35.0,30.00,North,0,0.0,0.0,51,0.00,,,0.00,,2013-03-21 05:52:00,
2013-03-21 01:03:00,51.0,34.0,30.01,North,7,0.0,0.0,53,0.00,,,0.00,,2013-03-21 06:03:00,
2013-03-21 01:12:00,51.0,34.0,30.01,North,7,0.0,0.0,53,0.00,,,0.00,,2013-03-21 06:12:00,
2013-03-21 01:22:00,51.0,35.0,30.00,North,0,0.0,0.0,55,0.00,,,0.00,,2013-03-21 06:22:00,
2013-03-21 01:32:00,51.0,36.0,29.99,North,7,0.0,0.0,56,0.00,,,0.00,,2013-03-21 06:32:00,
2013-03-21 01:42:00,51.0,36.0,29.99,North,7,0.0,0.0,56,0.00,,,0.00,,2013-03-21 06:42:00,
2013-03-21 01:52:00,51.0,35.0,29.99,North,0,0.0,0.0,54,0.00,,,0.00,,2013-03-21 06:52:00,
2013-03-21 02:02:00,51.0,35.0,29.98,North,0,0.0,0.0,55,0.00,,,0.00,,2013-03-21 07:02:00,
2013-03-21 02:12:00,51.0,35.0,29.98,North,0,0.0,0.0,55,0.00,,,0.00,,2013-03-21 07:12:00,
2013-03-21 02:22:00,51.0,35.0,29.98,North,0,0.0,0.0,55,0.00,,,0.00,,2013-03-21 07:22:00,
2013-03-21 02:32:00,51.0,37.0,29.97,North,7,0.0,0.0,58,0.00,,,0.00,,2013-03-21 07:32:00,
2013-03-21 02:43:00,51.0,37.0,29.97,North,7,0.0,0.0,58,0.00,,,0.00,,2013-03-21 07:43:00,
2013-03-21 02:52:00,51.0,37.0,29.96,North,0,0.0,0.0,59,0.00,,,0.00,,2013-03-21 07:52:00,
2013-03-21 03:02:00,51.0,37.0,29.96,North,0,0.0,0.0,59,0.00,,,0.00,,2013-03-21 08:02:00,
2013-03-21 03:13:00,51.0,37.0,29.96,North,0,0.0,0.0,59,0.00,,,0.00,,2013-03-21 08:13:00,
2013-03-21 03:22:00,51.0,37.0,29.96,North,0,0.0,0.0,59,0.00,,,0.00,,2013-03-21 08:22:00,
2013-03-21 03:33:00,51.0,36.0,29.95,North,0,0.0,0.0,57,0.00,,,0.00,,2013-03-21 08:33:00,
2013-03-21 03:42:00,51.0,36.0,29.95,North,0,0.0,0.0,57,0.00,,,0.00,,2013-03-21 08:42:00,
2013-03-21 03:52:00,51.0,35.0,29.94,North,0,0.0,0.0,55,0.00,,,0.00,,2013-03-21 08:52:00,
2013-03-21 04:02:00,51.0,34.0,29.93,North,0,0.0,0.0,53,0.00,,,0.00,,2013-03-21 09:02:00,
2013-03-21 04:11:00,51.0,34.0,29.93,North,0,0.0,0.0,53,0.00,,,0.00,,2013-03-21 09:11:00,
2013-03-21 04:21:00,51.0,34.0,29.92,North,7,0.0,0.0,53,0.00,,,0.00,,2013-03-21 09:21:00,
2013-03-21 04:33:00,51.0,34.0,29.91,North,0,0.0,0.0,52,0.00,,,0.00,,2013-03-21 09:33:00,
2013-03-21 04:43:00,51.0,34.0,29.91,North,0,0.0,0.0,52,0.00,,,0.00,,2013-03-21 09:43:00,
2013-03-21 04:53:00,51.0,34.0,29.91,North,0,0.0,0.0,52,0.00,,,0.00,,2013-03-21 09:53:00,
2013-03-21 05:03:00,52.0,33.0,29.91,North,0,0.0,0.0,48,0.00,,,0.00,,2013-03-21 10:03:00,
2013-03-21 05:12:00,52.0,33.0,29.91,North,0,0.0,0.0,48,0.00,,,0.00,,2013-03-21 10:12:00,
2013-03-21 05:23:00,52.0,33.0,29.91,North,0,0.0,0.0,48,0.00,,,0.00,,2013-03-21 10:23:00,
2013-03-21 05:33:00,52.0,33.0,29.90,North,7,0.0,0.0,48,0.00,,,0.00,,2013-03-21 10:33:00,
2013-03-21 05:42:00,52.0,33.0,29.90,North,7,0.0,0.0,48,0.00,,,0.00,,2013-03-21 10:42:00,
2013-03-21 05:53:00,52.0,33.0,29.90,North,0,0.0,0.0,49,0.00,,,0.00,,2013-03-21 10:53:00,
2013-03-21 06:03:00,52.0,33.0,29.89,North,0,0.0,0.0,48,0.00,,,0.00,,2013-03-21 11:03:00,
2013-03-21 06:12:00,52.0,33.0,29.89,North,0,0.0,0.0,48,0.00,,,0.00,,2013-03-21 11:12:00,
2013-03-21 06:22:00,51.0,33.0,29.89,North,0,0.0,0.0,50,0.00,,,0.00,,2013-03-21 11:22:00,
2013-03-21 06:33:00,51.0,34.0,29.90,North,0,0.0,0.0,51,0.00,,,0.00,,2013-03-21 11:33:00,
2013-03-21 06:42:00,51.0,34.0,29.90,North,0,0.0,0.0,51,0.00,,,0.00,,2013-03-21 11:42:00,
2013-03-21 06:52:00,51.0,34.0,29.90,North,0,0.0,0.0,52,0.00,,,0.00,,2013-03-21 11:52:00,
2013-03-21 07:02:00,51.0,34.0,29.90,North,0,0.0,0.0,52,0.00,,,0.00,,2013-03-21 12:02:00,
2013-03-21 07:12:00,51.0,34.0,29.90,North,0,0.0,0.0,52,0.00,,,0.00,,2013-03-21 12:12:00,
2013-03-21 07:22:00,50.0,35.0,29.90,North,7,0.0,0.0,57,0.00,,,0.00,,2013-03-21 12:22:00,
2013-03-21 07:33:00,50.0,34.0,29.89,North,0,0.0,0.0,55,0.00,,,0.00,,2013-03-21 12:33:00,
2013-03-21 07:42:00,50.0,34.0,29.89,North,0,0.0,0.0,55,0.00,,,0.00,,2013-03-21 12:42:00,
2013-03-21 07:52:00,50.0,35.0,29.89,North,0,0.0,0.0,56,0.00,,,0.00,,2013-03-21 12:52:00,
2013-03-21 08:02:00,50.0,35.0,29.89,North,0,0.0,0.0,56,0.00,,,0.00,,2013-03-21 13:02:00,
2013-03-21 08:12:00,50.0,35.0,29.89,North,0,0.0,0.0,56,0.00,,,0.00,,2013-03-21 13:12:00,
2013-03-21 08:22:00,50.0,34.0,29.89,North,7,0.0,0.0,55,0.00,,,0.00,,2013-03-21 13:22:00,
2013-03-21 08:32:00,51.0,35.0,29.89,North,7,0.0,0.0,54,0.00,,,0.00,,2013-03-21 13:32:00,
2013-03-21 08:42:00,51.0,35.0,29.89,North,7,0.0,0.0,54,0.00,,,0.00,,2013-03-21 13:42:00,
2013-03-21 08:52:00,51.0,36.0,29.88,North,7,0.0,0.0,56,0.00,,,0.00,,2013-03-21 13:52:00,
2013-03-21 09:02:00,51.0,36.0,29.88,North,0,0.0,0.0,56,0.00,,,0.00,,2013-03-21 14:02:00,
2013-03-21 09:12:00,51.0,35.0,29.89,North,0,0.0,0.0,54,0.00,,,0.00,,2013-03-21 14:12:00,
2013-03-21 09:22:00,51.0,35.0,29.89,North,0,0.0,0.0,54,0.00,,,0.00,,2013-03-21 14:22:00,
2013-03-21 09:32:00,50.0,38.0,29.88,North,0,0.0,10.0,62,0.01,,,0.01,,2013-03-21 14:32:00,
2013-03-21 09:42:00,50.0,38.0,29.88,North,0,0.0,10.0,62,0.01,,,0.01,,2013-03-21 14:42:00,
2013-03-21 09:52:00,50.0,38.0,29.88,SE,131,6.0,15.0,63,0.01,,,0.01,,2013-03-21 14:52:00,
2013-03-21 10:03:00,52.0,39.0,29.87,SE,128,9.0,15.0,60,0.02,,,0.02,,2013-03-21 15:03:00,
2013-03-21 10:12:00,52.0,37.0,29.87,SE,131,10.0,16.0,57,0.02,,,0.02,,2013-03-21 15:12:00,
2013-03-21 10:22:00,52.0,37.0,29.87,SE,131,10.0,16.0,57,0.02,,,0.02,,2013-03-21 15:22:00,
2013-03-21 10:33:00,54.0,38.0,29.85,SE,132,12.0,17.0,54,0.01,,,0.02,,2013-03-21 15:33:00,
2013-03-21 10:42:00,54.0,38.0,29.85,SE,132,12.0,17.0,54,0.01,,,0.02,,2013-03-21 15:42:00,
2013-03-21 10:53:00,54.0,38.0,29.85,SE,132,12.0,17.0,54,0.01,,,0.02,,2013-03-21 15:53:00,
2013-03-21 11:03:00,55.0,37.0,29.83,SE,141,12.0,21.0,50,0.00,,,0.02,,2013-03-21 16:03:00,
2013-03-21 11:12:00,55.0,37.0,29.83,SE,141,12.0,21.0,50,0.00,,,0.02,,2013-03-21 16:12:00,
2013-03-21 11:23:00,56.0,37.0,29.84,SSE,151,10.0,18.0,49,0.00,,,0.02,,2013-03-21 16:23:00,
2013-03-21 11:33:00,57.0,36.0,29.82,SE,143,12.0,21.0,46,0.00,,,0.02,,2013-03-21 16:33:00,
2013-03-21 11:42:00,57.0,36.0,29.82,SE,143,12.0,21.0,46,0.00,,,0.02,,2013-03-21 16:42:00,
2013-03-21 11:52:00,57.0,36.0,29.82,SE,143,12.0,21.0,46,0.00,,,0.02,,2013-03-21 16:52:00,
2013-03-21 12:02:00,59.0,38.0,29.81,SE,129,14.0,20.0,46,0.00,,,0.02,,2013-03-21 17:02:00,
2013-03-21 12:12:00,59.0,38.0,29.81,SE,129,14.0,20.0,46,0.00,,,0.02,,2013-03-21 17:12:00,
2013-03-21 12:23:00,61.0,39.0,29.79,SSE,152,14.0,21.0,44,0.00,,,0.02,,2013-03-21 17:23:00,
2013-03-21 12:32:00,62.0,40.0,29.78,SE,143,11.0,20.0,45,0.00,,,0.02,,2013-03-21 17:32:00,
2013-03-21 12:42:00,62.0,40.0,29.78,SE,143,11.0,20.0,45,0.00,,,0.02,,2013-03-21 17:42:00,
2013-03-21 12:52:00,63.0,41.0,29.77,SE,146,13.0,20.0,44,0.00,,,0.02,,2013-03-21 17:52:00,
2013-03-21 13:02:00,63.0,40.0,29.76,South,169,14.0,26.0,43,0.00,,,0.02,,2013-03-21 18:02:00,
2013-03-21 13:12:00,63.0,40.0,29.76,South,169,14.0,26.0,43,0.00,,,0.02,,2013-03-21 18:12:00,
2013-03-21 13:22:00,65.0,42.0,29.75,SE,134,15.0,22.0,43,0.00,,,0.02,,2013-03-21 18:22:00,
2013-03-21 13:32:00,67.0,43.0,29.74,SSE,165,16.0,25.0,42,0.00,,,0.02,,2013-03-21 18:32:00,
2013-03-21 13:42:00,67.0,43.0,29.74,SSE,165,16.0,25.0,42,0.00,,,0.02,,2013-03-21 18:42:00,
2013-03-21 13:52:00,66.0,42.0,29.72,SSE,151,13.0,24.0,42,0.00,,,0.02,,2013-03-21 18:52:00,
2013-03-21 14:02:00,67.0,44.0,29.70,SSE,152,14.0,26.0,43,0.00,,,0.02,,2013-03-21 19:02:00,
2013-03-21 14:12:00,67.0,44.0,29.70,SSE,152,14.0,26.0,43,0.00,,,0.02,,2013-03-21 19:12:00,
2013-03-21 14:22:00,69.0,46.0,29.70,North,0,16.0,24.0,43,0.00,,,0.02,,2013-03-21 19:22:00,
2013-03-21 14:32:00,68.0,46.0,29.67,South,173,11.0,23.0,45,0.00,,,0.02,,2013-03-21 19:32:00,
2013-03-21 14:42:00,68.0,46.0,29.67,South,173,11.0,23.0,45,0.00,,,0.02,,2013-03-21 19:42:00,
2013-03-21 14:52:00,68.0,46.0,29.67,SSE,158,14.0,22.0,45,0.00,,,0.02,,2013-03-21 19:52:00,
2013-03-21 15:02:00,68.0,46.0,29.67,SSE,158,14.0,22.0,45,0.00,,,0.02,,2013-03-21 20:02:00,
2013-03-21 15:12:00,68.0,46.0,29.67,SSE,158,14.0,22.0,45,0.00,,,0.02,,2013-03-21 20:12:00,
2013-03-21 15:22:00,67.0,46.0,29.65,SSE,167,10.0,25.0,47,0.00,,,0.02,,2013-03-21 20:22:00,
2013-03-21 15:33:00,67.0,49.0,29.65,South,178,10.0,23.0,52,0.00,,,0.02,,2013-03-21 20:33:00,
2013-03-21 15:42:00,67.0,49.0,29.65,South,178,10.0,23.0,52,0.00,,,0.02,,2013-03-21 20:42:00,
2013-03-21 15:52:00,67.0,49.0,29.64,SSE,162,14.0,26.0,53,0.00,,,0.02,,2013-03-21 20:52:00,
2013-03-21 16:02:00,67.0,50.0,29.62,South,176,10.0,17.0,55,0.00,,,0.02,,2013-03-21 21:02:00,
2013-03-21 16:12:00,67.0,50.0,29.62,South,176,10.0,17.0,55,0.00,,,0.02,,2013-03-21 21:12:00,
2013-03-21 16:22:00,67.0,50.0,29.62,South,176,10.0,17.0,55,0.00,,,0.02,,2013-03-21 21:22:00,
2013-03-21 16:33:00,67.0,50.0,29.61,North,8,2.0,8.0,55,0.00,,,0.02,,2013-03-21 21:33:00,
2013-03-21 16:43:00,67.0,50.0,29.61,North,8,2.0,8.0,55,0.00,,,0.02,,2013-03-21 21:43:00,
2013-03-21 16:53:00,67.0,51.0,29.60,North,0,0.0,0.0,57,0.00,,,0.02,,2013-03-21 21:53:00,
2013-03-21 17:02:00,67.0,51.0,29.60,North,0,0.0,0.0,57,0.00,,,0.02,,2013-03-21 22:02:00,
2013-03-21 17:13:00,67.0,51.0,29.60,North,0,0.0,0.0,57,0.00,,,0.02,,2013-03-21 22:13:00,
2013-03-21 17:23:00,67.0,51.0,29.59,North,0,0.0,0.0,57,0.00,,,0.02,,2013-03-21 22:23:00,
2013-03-21 17:33:00,67.0,51.0,29.57,North,0,0.0,0.0,57,0.00,,,0.02,,2013-03-21 22:33:00,
2013-03-21 17:42:00,67.0,51.0,29.57,North,0,0.0,0.0,57,0.00,,,0.02,,2013-03-21 22:42:00,
2013-03-21 17:52:00,67.0,51.0,29.57,North,0,0.0,0.0,57,0.00,,,0.02,,2013-03-21 22:52:00,
2013-03-21 18:02:00,68.0,53.0,29.57,SSE,165,1.0,12.0,58,0.00,,,0.02,,2013-03-21 23:02:00,
2013-03-21 18:12:00,68.0,53.0,29.57,SSE,165,1.0,12.0,58,0.00,,,0.02,,2013-03-21 23:12:00,
2013-03-21 18:22:00,68.0,53.0,29.56,SSE,161,10.0,20.0,59,0.00,,,0.02,,2013-03-21 23:22:00,
2013-03-21 18:32:00,68.0,53.0,29.56,SSE,150,13.0,18.0,58,0.00,,,0.02,,2013-03-21 23:32:00,
2013-03-21 18:42:00,68.0,53.0,29.56,SSE,150,13.0,18.0,58,0.00,,,0.02,,2013-03-21 23:42:00,
2013-03-21 18:52:00,69.0,54.0,29.56,SSE,156,12.0,22.0,58,0.00,,,0.02,,2013-03-21 23:52:00,
2013-03-21 19:02:00,68.0,54.0,29.57,SSE,154,10.0,18.0,60,0.00,,,0.02,,2013-03-22 00:02:00,
2013-03-21 19:12:00,68.0,54.0,29.57,SSE,154,10.0,18.0,60,0.00,,,0.02,,2013-03-22 00:12:00,
2013-03-21 19:22:00,67.0,53.0,29.56,SSE,157,12.0,20.0,61,0.00,,,0.02,,2013-03-22 00:22:00,
2013-03-21 19:32:00,67.0,54.0,29.57,SE,143,9.0,15.0,62,0.00,,,0.02,,2013-03-22 00:32:00,
2013-03-21 19:42:00,67.0,54.0,29.57,SE,143,9.0,15.0,62,0.00,,,0.02,,2013-03-22 00:42:00,
2013-03-21 19:52:00,67.0,54.0,29.57,SE,136,8.0,16.0,63,0.00,,,0.02,,2013-03-22 00:52:00,
2013-03-21 20:02:00,66.0,54.0,29.57,ESE,120,7.0,13.0,65,0.00,,,0.02,,2013-03-22 01:02:00,
2013-03-21 20:12:00,66.0,54.0,29.57,ESE,120,7.0,13.0,65,0.00,,,0.02,,2013-03-22 01:12:00,
2013-03-21 20:22:00,66.0,54.0,29.57,ESE,120,7.0,13.0,65,0.00,,,0.02,,2013-03-22 01:22:00,
2013-03-21 20:32:00,66.0,54.0,29.57,ESE,119,9.0,12.0,66,0.00,,,0.02,,2013-03-22 01:32:00,
2013-03-21 20:42:00,66.0,54.0,29.57,ESE,119,9.0,12.0,66,0.00,,,0.02,,2013-03-22 01:42:00,
2013-03-21 20:53:00,66.0,54.0,29.57,SE,127,7.0,12.0,66,0.00,,,0.02,,2013-03-22 01:53:00,
2013-03-21 21:02:00,66.0,55.0,29.57,ESE,120,7.0,13.0,67,0.00,,,0.02,,2013-03-22 02:02:00,
2013-03-21 21:12:00,66.0,55.0,29.57,ESE,120,7.0,13.0,67,0.00,,,0.02,,2013-03-22 02:12:00,
2013-03-21 21:22:00,66.0,55.0,29.56,SE,131,9.0,13.0,67,0.00,,,0.02,,2013-03-22 02:22:00,
2013-03-21 21:32:00,66.0,55.0,29.57,SE,128,12.0,20.0,67,0.00,,,0.02,,2013-03-22 02:32:00,
2013-03-21 21:42:00,66.0,55.0,29.57,SE,128,12.0,20.0,67,0.00,,,0.02,,2013-03-22 02:42:00,
2013-03-21 21:52:00,66.0,55.0,29.56,SE,126,12.0,20.0,67,0.00,,,0.02,,2013-03-22 02:52:00,
2013-03-21 22:02:00,66.0,55.0,29.57,SE,139,12.0,20.0,68,0.00,,,0.02,,2013-03-22 03:02:00,
2013-03-21 22:12:00,66.0,55.0,29.57,SE,139,12.0,20.0,68,0.00,,,0.02,,2013-03-22 03:12:00,
2013-03-21 22:22:00,66.0,56.0,29.57,SE,138,12.0,20.0,69,0.00,,,0.02,,2013-03-22 03:22:00,
2013-03-21 22:33:00,66.0,56.0,29.58,South,170,12.0,20.0,70,0.00,,,0.02,,2013-03-22 03:33:00,
2013-03-21 22:42:00,66.0,56.0,29.58,South,170,12.0,20.0,70,0.00,,,0.02,,2013-03-22 03:42:00,
2013-03-21 22:52:00,66.0,56.0,29.58,SSE,159,14.0,20.0,71,0.00,,,0.02,,2013-03-22 03:52:00,
2013-03-21 23:03:00,66.0,57.0,29.58,SSE,156,11.0,18.0,72,0.00,,,0.02,,2013-03-22 04:03:00,
2013-03-21 23:12:00,66.0,57.0,29.58,SSE,156,11.0,18.0,72,0.00,,,0.02,,2013-03-22 04:12:00,
2013-03-21 23:23:00,66.0,57.0,29.58,SE,137,12.0,20.0,72,0.00,,,0.02,,2013-03-22 04:23:00,
2013-03-21 23:32:00,66.0,57.0,29.58,SE,138,11.0,17.0,73,0.00,,,0.02,,2013-03-22 04:32:00,
2013-03-21 23:42:00,66.0,57.0,29.58,SE,138,11.0,17.0,73,0.00,,,0.02,,2013-03-22 04:42:00,
2013-03-21 23:52:00,66.0,57.0,29.58,SSE,163,13.0,20.0,73,0.00,,,0.02,,2013-03-22 04:52:00,